Weather History for Dodge Center, MN

Change the Weather History Date:

Monday, November 5, 2012

  Actual Average (KRST) Record (KRST)
Temperature  
Mean Temperature 42 °F 40 °F  
Max Temperature 46 °F 48 °F 70 °F (1893)
Min Temperature 39 °F 32 °F -4 °F (1951)
Degree Days  
Heating Degree Days 22 25  
Month to date heating degree days 121  
Since 1 July heating degree days 857  
Cooling Degree Days 0 0  
Month to date cooling degree days 0  
Year to date cooling degree days 585  
Moisture  
Dew Point 37 °F    
Average Humidity 83    
Maximum Humidity 93    
Minimum Humidity 66    
Precipitation  
Precipitation 0.00 in 0.06 in 1.18 in (1979)
Month to date precipitation 0.33  
Year to date precipitation 30.21  
Snow  
Snow 0.00 in 0.10 in 3.50 in (1911)
Month to date snowfall 0.5  
Since 1 July snowfall 1.3  
Since 1 September snowfall 1.3  
Snow Depth -    
Sea Level Pressure  
Sea Level Pressure 30.12 in    
Wind  
Wind Speed 0 mph (North)    
Max Wind Speed 0 mph    
Max Gust Speed -    
Visibility 8 miles    
Events Rain    
T = Trace of Precipitation, MM = Missing Value Source: NWS Daily Summary

Daily Weather History Graph

Daily Weather History Graph

Search for Another Location

Airport:

Trip Planner

Search our weather history database for the weather conditions in past years. The results will help you decide how hot, cold, wet, or windy it might be!

Date:

Astronomy

Nov. 05, 2012 Rise Set
Actual Time 6:53 AM CST 4:55 PM CST
Civil Twilight 6:23 AM CST 5:25 PM CST
Nautical Twilight 5:49 AM CST 6:00 PM CST
Astronomical Twilight 5:15 AM CST 6:33 PM CST
Moon 10:33 PM CST (11/5) 12:13 PM CST (11/5)
Length of Visible Light 11h 02m
Length of Day
10h 01m
Waning Gibbous, 62% of the Moon is Illuminated
Nov 5
Waning Gibbous
Nov 6
Last Quarter
Nov 13
New
Nov 20
First Quarter
Nov 28
Full

Hourly Weather History & Observations

Time (CST) Temp. Dew Point Humidity Pressure Visibility Wind Dir Wind Speed Gust Speed Precip Events Conditions
12:14 AM 41.0 °F 37.4 °F 87% 30.13 in 7.0 mi Calm Calm - N/A   Mostly Cloudy
12:34 AM 41.0 °F 37.4 °F 87% 30.13 in 7.0 mi Calm Calm - N/A   Scattered Clouds
12:55 AM 42.8 °F 37.4 °F 81% 30.13 in 7.0 mi Calm Calm - N/A   Overcast
1:14 AM 42.8 °F 37.4 °F 81% 30.13 in 7.0 mi Calm Calm - N/A   Light Drizzle
1:34 AM 41.0 °F 37.4 °F 87% 30.13 in 7.0 mi Calm Calm - N/A Rain Rain
1:54 AM 41.0 °F 39.2 °F 93% 30.14 in 5.0 mi Calm Calm - N/A   Light Drizzle
2:14 AM 41.0 °F 37.4 °F 87% 30.14 in 5.0 mi Calm Calm - N/A   Overcast
2:34 AM 41.0 °F 37.4 °F 87% 30.14 in 5.0 mi Calm Calm - N/A   Mostly Cloudy
2:54 AM 41.0 °F 37.4 °F 87% 30.13 in 7.0 mi Calm Calm - N/A   Mostly Cloudy
3:15 AM 41.0 °F 37.4 °F 87% 30.14 in 7.0 mi Calm Calm - N/A Rain Light Rain
3:34 AM 41.0 °F 37.4 °F 87% 30.14 in 7.0 mi Calm Calm - N/A   Light Drizzle
3:54 AM 41.0 °F 39.2 °F 93% 30.14 in 5.0 mi Calm Calm - N/A   Overcast
4:14 AM 41.0 °F 37.4 °F 87% 30.14 in 5.0 mi Calm Calm - N/A   Mostly Cloudy
4:35 AM 39.2 °F 37.4 °F 93% 30.14 in 5.0 mi Calm Calm - N/A   Scattered Clouds
4:54 AM 39.2 °F 37.4 °F 93% 30.14 in 5.0 mi Calm Calm - N/A   Scattered Clouds
5:14 AM 39.2 °F 37.4 °F 93% 30.14 in 5.0 mi Calm Calm - N/A   Mostly Cloudy
5:34 AM 39.2 °F 37.4 °F 93% 30.14 in 7.0 mi Calm Calm - N/A   Overcast
5:54 AM 39.2 °F 37.4 °F 93% 30.14 in 7.0 mi Calm Calm - N/A   Mostly Cloudy
6:14 AM 39.2 °F 37.4 °F 93% 30.14 in 5.0 mi Calm Calm - N/A   Mostly Cloudy
6:34 AM 39.2 °F 37.4 °F 93% 30.15 in 5.0 mi Calm Calm - N/A   Mostly Cloudy
6:55 AM 39.2 °F 37.4 °F 93% 30.15 in 7.0 mi Calm Calm - N/A   Mostly Cloudy
7:14 AM 39.2 °F 37.4 °F 93% 30.15 in 5.0 mi Calm Calm - N/A   Overcast
7:34 AM 39.2 °F 37.4 °F 93% 30.16 in 5.0 mi Calm Calm - N/A   Overcast
7:54 AM 39.2 °F 37.4 °F 93% 30.16 in 5.0 mi Calm Calm - N/A   Overcast
8:14 AM 39.2 °F 37.4 °F 93% 30.17 in 7.0 mi Calm Calm - N/A   Mostly Cloudy
8:33 AM 39.2 °F 37.4 °F 93% 30.17 in 7.0 mi Calm Calm - N/A   Mostly Cloudy
8:54 AM 39.2 °F 37.4 °F 93% 30.17 in 7.0 mi Calm Calm - N/A   Mostly Cloudy
9:14 AM 41.0 °F 35.6 °F 81% 30.17 in 7.0 mi Calm Calm - N/A   Mostly Cloudy
9:34 AM 41.0 °F 35.6 °F 81% 30.17 in 10.0 mi Calm Calm - N/A   Scattered Clouds
9:54 AM 41.0 °F 35.6 °F 81% 30.18 in 10.0 mi Calm Calm - N/A   Mostly Cloudy
10:14 AM 41.0 °F 35.6 °F 81% 30.18 in 10.0 mi Calm Calm - N/A   Overcast
10:34 AM 41.0 °F 35.6 °F 81% 30.18 in 10.0 mi Calm Calm - N/A   Overcast
10:54 AM 42.8 °F 35.6 °F 76% 30.18 in 10.0 mi Calm Calm - N/A   Mostly Cloudy
11:14 AM 42.8 °F 35.6 °F 76% 30.18 in 10.0 mi Calm Calm - N/A   Mostly Cloudy
11:34 AM 44.6 °F 35.6 °F 71% 30.17 in 10.0 mi Calm Calm - N/A   Scattered Clouds
11:54 AM 44.6 °F 35.6 °F 71% 30.16 in 10.0 mi Calm Calm - N/A   Scattered Clouds
12:14 PM 44.6 °F 35.6 °F 71% 30.16 in 10.0 mi Calm Calm - N/A   Scattered Clouds
12:34 PM 44.6 °F 35.6 °F 71% 30.15 in 10.0 mi Calm Calm - N/A   Mostly Cloudy
12:54 PM 44.6 °F 35.6 °F 71% 30.14 in 10.0 mi Calm Calm - N/A   Mostly Cloudy
1:14 PM 44.6 °F 35.6 °F 71% 30.13 in 10.0 mi Calm Calm - N/A   Mostly Cloudy
1:34 PM 46.4 °F 35.6 °F 66% 30.12 in 10.0 mi Calm Calm - N/A   Mostly Cloudy
1:54 PM 46.4 °F 35.6 °F 66% 30.12 in 10.0 mi Calm Calm - N/A   Overcast
2:14 PM 44.6 °F 35.6 °F 71% 30.11 in 10.0 mi Calm Calm - N/A   Overcast
2:34 PM 44.6 °F 35.6 °F 71% 30.12 in 10.0 mi Calm Calm - N/A   Overcast
2:54 PM 44.6 °F 35.6 °F 71% 30.12 in 10.0 mi Calm Calm - N/A   Overcast
3:14 PM 44.6 °F 35.6 °F 71% 30.12 in 10.0 mi Calm Calm - N/A   Overcast
3:54 PM 44.6 °F 35.6 °F 71% 30.11 in 10.0 mi Calm Calm - N/A   Mostly Cloudy
4:14 PM 44.6 °F 35.6 °F 71% 30.10 in 10.0 mi Calm Calm - N/A   Overcast
4:35 PM 42.8 °F 35.6 °F 76% 30.11 in 10.0 mi Calm Calm - N/A   Mostly Cloudy
4:54 PM 42.8 °F 37.4 °F 81% 30.11 in 10.0 mi Calm Calm - N/A   Mostly Cloudy
5:14 PM 42.8 °F 37.4 °F 81% 30.10 in 10.0 mi Calm Calm - N/A   Overcast
5:34 PM 42.8 °F 37.4 °F 81% 30.10 in 10.0 mi Calm Calm - N/A   Overcast
5:54 PM 42.8 °F 37.4 °F 81% 30.09 in 10.0 mi Calm Calm - N/A   Overcast
6:14 PM 42.8 °F 37.4 °F 81% 30.09 in 10.0 mi Calm Calm - N/A   Overcast
6:34 PM 42.8 °F 37.4 °F 81% 30.09 in 10.0 mi Calm Calm - N/A   Overcast
6:54 PM 42.8 °F 37.4 °F 81% 30.08 in 10.0 mi Calm Calm - N/A   Overcast
7:14 PM 42.8 °F 37.4 °F 81% 30.07 in 10.0 mi Calm Calm - N/A   Overcast
7:34 PM 42.8 °F 35.6 °F 76% 30.06 in 10.0 mi Calm Calm - N/A   Overcast
7:54 PM 41.0 °F 35.6 °F 81% 30.05 in 10.0 mi Calm Calm - N/A   Overcast
8:15 PM 39.2 °F 35.6 °F 87% 30.06 in 10.0 mi Calm Calm - N/A   Overcast
8:34 PM 41.0 °F 35.6 °F 81% 30.06 in 10.0 mi Calm Calm - N/A   Overcast
8:55 PM 41.0 °F 35.6 °F 81% 30.05 in 10.0 mi Calm Calm - N/A   Overcast
9:14 PM 41.0 °F 35.6 °F 81% 30.05 in 10.0 mi Calm Calm - N/A   Overcast
9:34 PM 41.0 °F 35.6 °F 81% 30.04 in 10.0 mi Calm Calm - N/A   Overcast
9:54 PM 39.2 °F 35.6 °F 87% 30.03 in 10.0 mi Calm Calm - N/A   Overcast
10:14 PM 39.2 °F 35.6 °F 87% 30.03 in 10.0 mi Calm Calm - N/A   Overcast
10:34 PM 39.2 °F 35.6 °F 87% 30.02 in 7.0 mi Calm Calm - N/A   Overcast
10:54 PM 39.2 °F 35.6 °F 87% 29.99 in 10.0 mi Calm Calm - N/A   Overcast
11:14 PM 39.2 °F 35.6 °F 87% 29.99 in 10.0 mi Calm Calm - N/A   Overcast
11:34 PM 39.2 °F 35.6 °F 87% 29.98 in 7.0 mi Calm Calm - N/A   Overcast
11:54 PM 39.2 °F 35.6 °F 87% 29.97 in 7.0 mi Calm Calm - N/A   Overcast